Wind_Speed
28 29 32 37 41 46 51 56 62 68 73 74 74 75 77 75 72 69 68 68 65 59 55 52 52 53 53 54 55 56 56 54 53 53 53 52 51 48 43 38 34 30 29 31
28 30 32 37 42 48 53 58 64 70 74 75 73 75 76 73 71 68 68 67 61 55 53 52 53 54 54 56 57 56 55 53 52 53 54 54 52 49 44 39 34 29 25 26
32 34 36 40 46 50 54 60 66 71 74 73 72 74 74 72 69 68 68 64 57 53 52 52 54 55 56 58 58 57 55 52 52 54 57 57 55 52 47 41 35 30 25 23
35 37 39 43 47 51 56 62 67 72 74 72 72 73 72 69 68 67 66 60 53 52 52 54 55 56 57 60 60 58 55 52 54 57 59 59 58 56 52 44 36 30 26 22
37 39 40 43 49 54 58 62 68 72 72 71 72 73 70 68 67 67 63 56 53 53 54 55 55 56 59 61 61 59 54 53 55 57 59 59 60 60 56 46 37 30 25 21
37 40 43 45 50 55 60 65 69 72 71 70 71 72 69 68 67 66 60 54 53 54 55 55 55 57 59 61 61 58 54 54 56 58 59 60 62 63 59 47 35 28 23 20
38 40 42 46 51 56 61 66 69 71 69 68 70 70 68 67 66 64 57 53 53 55 55 55 55 57 59 61 61 58 55 56 57 59 60 62 64 65 59 45 31 25 21 18
40 43 45 48 51 55 60 65 69 69 67 67 69 69 66 65 65 61 54 52 54 55 55 55 55 56 59 60 60 58 56 57 59 61 62 63 66 66 59 44 29 21 18 17
40 42 44 47 51 55 60 64 68 68 66 67 68 67 65 64 63 58 52 52 54 54 55 55 55 56 58 59 58 57 56 57 60 62 63 65 68 68 61 45 29 20 16 15
40 41 44 47 51 55 58 62 67 66 65 66 67 66 63 63 61 55 51 51 53 54 54 53 54 57 58 58 57 56 55 57 60 62 63 66 69 70 65 49 33 21 15 13
39 41 43 47 52 55 57 62 65 65 64 65 66 64 62 61 59 53 49 50 52 53 53 52 54 56 57 56 56 55 56 58 60 62 63 64 68 71 69 56 40 27 17 11
39 41 44 47 52 55 57 62 65 64 63 64 64 62 61 59 56 50 47 48 50 52 52 51 53 55 56 56 56 56 56 57 60 61 62 63 66 69 71 64 48 33 23 14
38 40 43 47 52 54 57 61 64 63 62 63 63 62 60 58 54 49 45 46 48 51 51 51 52 54 56 55 56 57 56 58 60 61 62 63 65 67 70 69 59 43 30 21
38 40 43 47 51 53 55 60 62 62 61 61 62 61 59 57 53 47 44 44 46 49 50 50 51 53 54 54 55 56 57 58 60 62 63 63 64 66 68 69 67 57 43 30
38 40 43 47 50 51 54 58 61 61 60 60 61 59 58 56 53 47 43 42 44 47 49 49 50 51 52 53 54 55 56 57 60 62 63 63 63 64 65 66 67 65 58 46
39 40 43 47 49 50 53 58 61 60 58 58 59 58 57 56 52 47 42 40 42 45 48 49 49 48 49 52 53 54 55 57 59 60 61 61 62 62 63 63 64 64 63 59
39 40 43 46 48 49 53 57 59 58 57 56 57 57 56 55 52 48 43 40 40 42 46 48 47 46 47 49 51 53 54 55 56 58 59 59 61 61 61 61 61 61 61 60
38 40 42 45 46 48 52 56 57 56 55 55 56 56 55 54 52 48 44 41 40 41 44 47 46 45 46 47 48 51 53 54 54 56 57 58 59 60 60 60 60 59 59 58
39 40 42 44 45 47 51 54 56 55 54 54 55 54 53 52 50 48 44 40 39 40 42 44 44 44 44 44 45 48 50 52 53 53 55 56 56 57 58 59 59 59 58 57
39 40 42 43 44 47 50 54 55 54 52 52 53 53 52 50 49 47 43 39 37 37 39 41 42 43 42 41 42 45 47 48 50 51 52 53 54 55 56 57 58 59 59 58
37 40 41 43 45 48 50 53 53 52 51 50 51 51 51 49 48 47 43 39 37 36 37 39 40 41 40 40 41 42 44 45 46 48 49 51 52 52 53 54 55 56 57 58
37 39 40 43 46 48 50 51 51 50 48 48 49 50 49 48 47 45 43 39 36 35 35 36 38 38 39 39 39 39 40 42 43 45 47 49 50 50 50 50 52 53 55 56
38 38 41 43 45 47 48 50 50 48 46 46 47 48 48 47 45 45 42 39 35 33 32 33 35 36 37 38 38 37 37 38 40 42 44 46 48 48 48 48 48 49 50 52
38 39 40 40 43 45 47 48 48 47 45 44 45 47 47 46 44 44 42 38 34 32 30 31 32 34 35 36 37 36 36 36 36 38 40 42 44 46 46 47 47 47 47 48
37 37 37 39 42 45 47 48 47 45 43 43 44 45 46 45 43 42 41 38 34 31 28 28 29 31 33 34 36 36 36 36 35 36 37 38 40 42 44 45 45 46 45 46
38 37 37 40 43 47 48 48 46 44 41 41 42 43 44 44 41 40 40 38 34 30 27 26 27 28 29 31 33 35 36 37 36 35 35 36 37 39 41 42 43 43 44 45
39 39 40 43 46 48 49 48 45 42 40 39 41 42 42 43 40 38 38 37 33 30 27 25 25 25 26 28 30 32 34 35 36 36 35 34 34 36 37 38 39 40 41 42
Wind_Direction
333 334 333 330 331 334 337 339 341 342 342 343 343 343 343 343 342 341 339 339 339 340 344 345 344 343 342 340 339 338 338 339 339 340 340 339 338 336 329 319 310 298 287 272
333 332 333 330 333 336 339 340 341 342 343 343 344 343 344 343 343 342 340 341 342 345 347 346 345 344 343 342 341 341 342 342 342 343 345 344 342 339 335 327 318 306 295 277
335 336 337 337 338 337 339 340 342 343 342 344 344 344 344 344 343 342 342 343 345 348 348 346 345 345 346 345 345 344 344 344 344 345 347 347 346 343 338 331 322 312 301 285
336 338 340 338 336 338 341 341 341 342 343 344 345 344 345 345 344 343 343 345 348 350 348 347 347 347 348 347 347 346 345 345 345 345 346 346 345 344 340 332 323 314 303 289
335 337 337 337 339 340 340 341 341 342 343 344 345 344 346 346 344 344 345 348 350 350 349 348 348 348 348 348 348 348 347 346 347 347 347 347 346 344 340 333 323 313 304 289
333 335 337 338 338 339 340 340 341 342 344 344 345 345 347 347 346 346 348 350 351 351 350 350 350 349 349 350 350 350 350 350 350 349 348 347 346 344 341 334 322 310 302 288
333 335 336 337 338 338 340 339 341 343 344 344 345 347 348 348 347 348 351 352 351 351 351 352 352 352 352 352 353 354 354 353 352 351 351 349 348 347 345 338 325 310 299 287
336 336 336 336 335 336 337 339 341 342 344 345 346 348 349 349 349 350 353 353 352 352 352 353 353 354 354 354 355 356 356 355 354 354 354 354 353 353 351 345 332 314 298 286
334 334 334 334 335 335 337 339 340 342 344 345 347 349 350 350 351 352 355 355 354 354 354 354 355 356 356 357 358 359 359 358 358 358 358 359 359 359 358 354 345 327 304 286
332 332 333 334 335 336 337 338 340 342 344 346 348 350 351 351 352 354 357 357 356 356 356 356 356 358 358 360 1 1 2 1 1 2 2 2 3 4 4 3 357 344 321 294
330 330 331 333 335 335 336 338 340 343 345 347 348 350 351 352 354 356 357 358 358 359 358 358 358 360 1 3 4 4 4 4 5 5 5 6 7 9 10 9 5 360 347 318
326 327 329 331 333 334 335 337 341 343 345 347 349 350 352 353 356 357 358 358 0 1 0 360 1 2 4 6 7 7 7 8 9 9 10 11 12 13 14 15 13 9 3 349
322 325 327 329 331 333 334 337 341 343 345 347 349 351 352 354 357 358 357 358 1 2 2 2 3 5 7 9 9 9 10 11 13 13 14 16 17 17 18 20 20 19 15 9
320 323 325 328 331 333 334 337 341 343 344 347 349 351 352 355 357 357 356 357 1 3 4 5 6 7 9 10 10 10 12 13 15 16 17 19 20 20 22 23 25 26 26 23
317 320 324 327 329 332 335 338 341 343 344 346 349 351 352 355 357 357 355 356 360 3 6 7 7 8 10 12 11 11 13 15 17 18 19 21 22 23 24 26 28 30 32 32
315 319 322 325 328 331 334 338 341 342 343 346 348 350 352 354 357 357 355 355 359 2 6 8 8 9 10 13 13 13 14 16 18 19 21 22 24 25 27 28 29 31 33 35
313 317 320 323 326 330 333 337 340 341 343 345 348 350 352 354 355 356 355 354 356 360 4 7 9 8 10 13 14 15 16 17 20 21 21 23 25 27 28 29 30 32 33 35
311 315 318 322 326 329 332 336 338 340 341 344 346 349 351 353 354 355 354 353 353 358 3 7 8 7 9 11 13 15 17 18 21 22 22 24 26 28 29 30 31 32 33 34
310 314 318 322 325 329 331 334 337 338 340 343 345 348 350 352 354 354 353 351 352 356 1 4 7 8 9 10 12 15 17 18 21 23 23 24 26 28 30 31 32 33 33 34
309 313 316 320 324 327 329 333 335 337 339 341 344 346 349 351 353 353 353 351 352 355 359 2 5 8 8 8 11 15 17 18 20 22 23 24 26 28 30 32 34 34 35 35
309 312 315 319 322 324 327 331 334 335 337 340 342 345 348 350 352 352 352 351 351 354 358 1 4 7 8 9 11 14 16 18 19 21 23 25 25 27 29 32 34 35 36 36
309 312 314 318 320 322 326 329 331 333 336 338 341 344 347 349 350 351 351 350 350 352 356 359 3 6 8 10 11 13 15 18 19 20 22 24 25 25 27 29 32 34 35 36
310 312 314 317 320 322 325 327 329 331 334 336 339 342 346 347 349 350 350 350 349 351 354 357 2 6 9 11 12 13 13 15 17 19 20 21 23 23 24 26 29 31 33 34
309 312 314 317 320 322 324 326 327 330 332 335 337 340 344 345 347 349 350 350 349 350 352 354 359 5 9 12 14 14 13 13 14 15 17 18 20 22 22 24 26 28 30 32
307 311 314 317 319 321 322 324 325 328 330 333 335 337 342 344 345 347 349 349 349 349 350 351 357 3 8 11 14 15 15 15 14 14 15 16 19 22 23 23 24 26 27 29
302 306 310 315 318 319 320 322 323 325 327 330 332 335 340 343 343 344 347 348 348 347 347 349 354 0 6 9 11 14 16 17 16 15 15 16 18 21 23 24 25 26 27 28
297 302 307 311 314 317 318 319 320 322 324 327 330 333 338 341 341 341 344 346 347 345 343 345 349 354 1 4 6 9 12 15 17 18 17 16 18 20 22 23 24 25 26 27
Height
5842 5837 5831 5823 5816 5808 5799 5788 5777 5764 5751 5736 5720 5705 5689 5672 5656 5641 5626 5612 5597 5581 5569 5558 5546 5534 5522 5510 5497 5484 5472 5459 5446 5434 5421 5409 5397 5385 5375 5367 5360 5356 5353 5351
5839 5833 5827 5819 5811 5802 5793 5781 5770 5757 5744 5729 5713 5697 5681 5665 5650 5635 5620 5606 5590 5576 5565 5553 5541 5529 5517 5504 5491 5477 5464 5452 5439 5427 5414 5401 5389 5377 5367 5358 5350 5345 5341 5339
5832 5826 5821 5813 5805 5796 5787 5775 5763 5750 5737 5721 5706 5691 5675 5659 5644 5628 5614 5599 5585 5572 5560 5548 5536 5524 5511 5498 5484 5471 5457 5445 5432 5420 5407 5394 5381 5369 5359 5349 5341 5336 5331 5329
5826 5821 5814 5810 5800 5790 5780 5769 5756 5742 5728 5714 5700 5684 5668 5652 5637 5623 5608 5593 5581 5569 5556 5544 5531 5518 5505 5492 5478 5464 5451 5438 5426 5414 5400 5387 5374 5361 5350 5340 5331 5325 5321 5318
5821 5815 5810 5803 5793 5782 5773 5763 5749 5736 5722 5708 5694 5680 5664 5647 5632 5618 5603 5588 5576 5565 5552 5540 5527 5514 5501 5487 5472 5459 5445 5433 5421 5408 5395 5380 5366 5353 5340 5329 5320 5314 5311 5308
5817 5810 5803 5798 5788 5777 5767 5756 5743 5731 5717 5703 5689 5674 5659 5642 5627 5612 5597 5584 5573 5561 5549 5536 5523 5510 5497 5483 5468 5454 5441 5428 5416 5402 5388 5373 5358 5343 5329 5316 5307 5302 5300 5298
5812 5805 5799 5791 5781 5771 5762 5752 5738 5724 5711 5697 5683 5668 5652 5636 5622 5607 5593 5581 5569 5557 5545 5533 5521 5507 5494 5479 5465 5451 5437 5424 5411 5397 5383 5367 5351 5333 5317 5303 5294 5289 5288 5287
5806 5799 5794 5784 5776 5768 5758 5745 5732 5718 5705 5692 5677 5662 5647 5632 5618 5603 5590 5579 5567 5555 5543 5531 5519 5506 5492 5477 5463 5449 5435 5422 5408 5393 5378 5362 5345 5326 5307 5292 5283 5279 5277 5277
5803 5798 5789 5780 5772 5763 5752 5740 5727 5713 5700 5687 5673 5658 5643 5629 5615 5601 5589 5577 5566 5553 5541 5529 5517 5504 5491 5477 5463 5448 5435 5421 5406 5390 5374 5358 5340 5321 5302 5286 5276 5271 5269 5269
5798 5791 5784 5775 5767 5757 5746 5734 5721 5708 5695 5683 5669 5654 5640 5626 5612 5598 5586 5576 5565 5553 5541 5528 5516 5503 5490 5477 5462 5448 5435 5421 5406 5390 5373 5356 5338 5319 5300 5284 5273 5267 5264 5263
5793 5786 5779 5771 5762 5752 5741 5729 5716 5703 5691 5679 5665 5650 5636 5623 5609 5596 5585 5575 5564 5552 5540 5528 5516 5504 5490 5477 5464 5450 5436 5422 5407 5391 5375 5358 5339 5320 5301 5284 5271 5265 5261 5259
5787 5781 5773 5766 5757 5746 5736 5724 5712 5699 5687 5675 5661 5647 5634 5621 5607 5595 5585 5575 5563 5552 5540 5528 5517 5504 5491 5478 5465 5452 5439 5425 5411 5396 5380 5363 5345 5327 5307 5289 5275 5265 5260 5257
5781 5775 5767 5759 5750 5741 5731 5720 5707 5695 5683 5672 5658 5644 5632 5619 5606 5594 5584 5574 5564 5552 5541 5529 5517 5505 5492 5479 5467 5455 5442 5428 5414 5399 5383 5367 5351 5335 5317 5300 5282 5270 5262 5258
5775 5769 5761 5753 5745 5736 5726 5715 5703 5691 5679 5668 5655 5642 5629 5617 5604 5593 5583 5574 5564 5553 5542 5530 5518 5506 5494 5481 5470 5458 5445 5431 5417 5402 5386 5371 5356 5342 5326 5311 5295 5280 5270 5263
5769 5762 5755 5747 5739 5730 5721 5711 5699 5687 5675 5664 5652 5639 5628 5615 5603 5592 5583 5573 5564 5553 5542 5531 5520 5509 5497 5485 5474 5462 5450 5436 5421 5406 5392 5378 5364 5351 5337 5322 5308 5294 5281 5272
5762 5755 5748 5741 5734 5725 5716 5706 5694 5682 5671 5660 5648 5637 5625 5614 5602 5592 5583 5573 5564 5554 5544 5533 5522 5511 5501 5489 5477 5466 5453 5440 5426 5413 5400 5387 5374 5360 5347 5334 5321 5309 5296 5285
5755 5749 5742 5735 5728 5720 5711 5701 5689 5678 5667 5656 5645 5634 5623 5611 5601 5591 5582 5573 5565 5556 5546 5535 5523 5513 5503 5492 5481 5470 5458 5445 5433 5420 5408 5396 5383 5370 5358 5346 5334 5322 5310 5300
5749 5743 5736 5729 5722 5715 5706 5695 5684 5674 5663 5653 5642 5631 5620 5609 5598 5588 5579 5571 5563 5555 5545 5535 5525 5515 5505 5495 5485 5474 5463 5451 5439 5427 5416 5405 5393 5380 5368 5356 5345 5334 5323 5313
5742 5737 5730 5723 5716 5709 5700 5690 5680 5670 5659 5649 5639 5629 5618 5608 5597 5587 5578 5569 5562 5554 5545 5536 5526 5517 5507 5499 5489 5478 5467 5457 5446 5435 5424 5414 5402 5391 5379 5368 5356 5345 5335 5325
5735 5729 5723 5717 5710 5702 5693 5684 5675 5665 5655 5645 5636 5625 5615 5606 5597 5587 5578 5570 5563 5555 5546 5538 5529 5519 5510 5502 5492 5482 5473 5463 5453 5443 5433 5422 5412 5401 5390 5379 5368 5358 5347 5338
5727 5722 5716 5710 5703 5696 5687 5679 5669 5660 5651 5641 5632 5622 5612 5603 5594 5585 5577 5569 5561 5554 5546 5538 5530 5521 5512 5504 5495 5486 5477 5468 5459 5450 5440 5430 5420 5410 5400 5390 5380 5370 5360 5351
5719 5714 5709 5703 5696 5689 5681 5673 5663 5654 5646 5637 5628 5619 5609 5600 5592 5584 5575 5567 5560 5553 5546 5539 5531 5523 5514 5506 5498 5490 5482 5473 5465 5456 5447 5438 5428 5419 5410 5400 5390 5381 5372 5363
5711 5706 5701 5696 5689 5682 5675 5666 5657 5649 5641 5633 5625 5616 5607 5599 5591 5583 5575 5566 5559 5552 5546 5539 5532 5524 5516 5508 5500 5493 5485 5477 5470 5462 5453 5444 5435 5427 5418 5409 5400 5391 5382 5373
5704 5699 5693 5688 5682 5675 5667 5659 5651 5643 5635 5628 5621 5612 5603 5596 5588 5580 5572 5564 5557 5551 5545 5539 5533 5525 5518 5510 5503 5496 5488 5481 5474 5466 5458 5450 5442 5433 5425 5417 5408 5399 5391 5383
5696 5691 5685 5680 5674 5667 5660 5652 5644 5637 5630 5623 5616 5608 5600 5592 5585 5578 5571 5563 5556 5550 5545 5539 5533 5526 5519 5512 5506 5499 5492 5484 5477 5469 5462 5455 5447 5439 5431 5423 5415 5407 5399 5391
5688 5683 5678 5672 5667 5660 5653 5645 5638 5631 5624 5618 5611 5604 5596 5589 5582 5575 5568 5561 5554 5548 5543 5538 5533 5526 5520 5514 5508 5501 5495 5487 5480 5473 5466 5459 5452 5444 5437 5430 5422 5415 5407 5399
5679 5674 5670 5665 5658 5652 5645 5637 5631 5625 5618 5612 5606 5599 5592 5585 5578 5572 5565 5559 5552 5546 5541 5536 5532 5526 5520 5515 5509 5503 5497 5491 5484 5477 5470 5463 5456 5449 5442 5435 5428 5421 5414 5407